Regional Weather Roundup
Issued by NWS

Home | Current Version | Previous Version | Graphics & Text | Print | Product List | Glossary On
Versions: 1 2 3 4 5 6 7 8 9 10 11 12 13 14 15 16 17 18 19 20 21 22 23 24 25 26 27 28 29 30 31 32 33 34 35 36 37 38 39 40 41 42 43 44 45 46 47 48 49 50
000
ASUS45 KCYS 040710
RWRWY

WYOMING REGIONAL WEATHER ROUNDUP
NATIONAL WEATHER SERVICE CHEYENNE WY
100 AM MDT TUE AUG 04 2015

NOTE:  "FAIR" INDICATES FEW OR NO CLOUDS BELOW 12,000 FEET
WITH NO SIGNIFICANT WEATHER AND/OR OBSTRUCTIONS TO VISIBILITY.

WYZ001-040800-
YELLOWSTONE NATIONAL PARK

CITY           SKY/WX    TMP DP  RH WIND       PRES   REMARKS
LK YELLOWSTONE   N/A     50  48  93 W3        30.25R
W YELLOWSTONE  NOT AVBL

$$
WYZ002>013-054>058-071-098>099-040800-
NORTHERN WYOMING

CITY           SKY/WX    TMP DP  RH WIND       PRES   REMARKS
JACKSON        NOT AVBL
CODY           FAIR      68  48  49 W8        29.99F
GREYBULL       FAIR      68  48  48 SE5       29.93F
WORLAND        CLOUDY    67  51  56 S5        29.95F
SHERIDAN       FAIR      80  42  25 SW21G37   29.87F
BUFFALO        FAIR      72  46  39 SW14      29.98F
GILLETTE       FAIR      65  50  58 S7        29.97R
HULETT         FAIR      68  52  56 SE6       29.99S
NEWCASTLE      FAIR      72  46  40 MISG      29.97F

$$
WYZ014>020-022>026-101>103-040800-
CENTRAL WYOMING

CITY           SKY/WX    TMP DP  RH WIND       PRES   REMARKS
BIG PINEY      CLOUDY    55  52  89 N6        30.17S
PINEDALE       DRIZZLE   54  54 100 NW6       30.18S
DUBOIS         CLOUDY    54  50  87 W8        30.17F
LANDER         LGT RAIN  58  56  93 CALM      30.05F
RIVERTON       CLOUDY    60  56  86 NW9       30.05F
CASPER         FAIR      57  54  89 N5        30.02F
DOUGLAS        FAIR      60  47  61 N7        30.01F

$$
WYZ021-027>030-104>119-040800-
SOUTHERN WYOMING

CITY           SKY/WX    TMP DP  RH WIND       PRES   REMARKS
EVANSTON       FAIR      52  47  83 W9        30.23R
KEMMERER       PTSUNNY   52  50  93 W8        30.21S
FORT BRIDGER   SUNNY     52  52 100 W13       30.24S
ROCK SPRINGS   MOCLDY    54  50  86 W20       30.16S
DIXON          CLOUDY    58  52  81 CALM      30.21F
RAWLINS        CLOUDY    56  52  86 SW9       30.16S
SARATOGA       CLOUDY    55  52  88 W8        30.19F
LARAMIE        CLOUDY    54  51  90 S5        30.19R
CHEYENNE       MOCLDY    66  46  48 W13       30.10F
TORRINGTON     FAIR      72  48  42 W5        29.97F
PINE BLUFFS    FAIR      63  50  63 S7        30.07F

$$



USA.gov is the U.S. government's official web portal to all federal, state and local government web resources and services.